Location: M�nchen Volkssternwarte
(48.1219°N, 11.6071°E)
Time: 12:58:19
(UTC+02:00)

ISS - Visible Passes

Search period start: 25 September 2018 00:00
Search period end: 05 October 2018 00:00
Orbit: 403 x 408 km, 51.6° (Epoch: 25 September)

Date Brightness Start Highest point End Pass type
(mag) Time Alt. Az. Time Alt. Az. Time Alt. Az.
25 Sep -3.7 21:02:49 10° WSW 21:06:04 75° NNW 21:06:04 75° NNW visible
26 Sep -3.9 20:10:57 10° WSW 20:14:14 76° SSE 20:16:23 20° ENE visible
26 Sep -1.2 21:47:43 10° W 21:49:05 21° WNW 21:49:05 21° WNW visible
27 Sep -3.3 20:55:42 10° W 20:58:56 52° NNW 20:59:17 49° NNE visible
28 Sep -3.5 20:03:42 10° WSW 20:06:59 66° NNW 20:09:26 17° ENE visible
28 Sep -1.3 21:40:36 10° WNW 21:42:07 23° WNW 21:42:07 23° WNW visible
29 Sep -3.0 20:48:35 10° WNW 20:51:47 43° N 20:52:11 41° NNE visible
30 Sep -3.1 19:56:32 10° W 19:59:46 48° N 20:02:14 15° ENE visible
30 Sep -1.4 21:33:22 10° WNW 21:34:54 24° NW 21:34:54 24° NW visible
01 Oct -3.1 20:41:23 10° WNW 20:44:34 44° N 20:44:55 42° NNE visible
02 Oct -3.0 19:49:20 10° WNW 19:52:31 43° N 19:54:55 16° ENE visible
02 Oct -1.5 21:26:01 10° WNW 21:27:35 25° WNW 21:27:35 25° WNW visible
03 Oct -3.5 20:34:03 10° WNW 20:37:18 54° NNE 20:37:35 51° NE visible
04 Oct -3.1 19:42:02 10° WNW 19:45:14 45° N 19:47:35 16° ENE visible
04 Oct -1.7 21:18:35 10° WNW 21:20:15 27° WNW 21:20:15 27° WNW visible
